Pagosa Springs, CO

1:08 PM MST on January 19, 2018 (GMT -0700)
Pagosa Springs

Weather History for KPSO - August, 2014

Change the Weather History Date:

Sunday, August 10, 2014

  Actual Average (KE33) Record (KE33)
Temperature  
Mean Temperature 64 °F -  
Max Temperature 80 °F 71 °F 86 °F (2002)
Min Temperature 48 °F 52 °F 50 °F (2000)
Degree Days  
Heating Degree Days 1    
Growing Degree Days 14 (Base 50)    
Moisture  
Dew Point 35 °F    
Average Humidity 35    
Maximum Humidity 64    
Minimum Humidity 14    
Precipitation  
Precipitation 0.00 in - - ()
Sea Level Pressure  
Sea Level Pressure 30.40 in    
Wind  
Wind Speed 2 mph (North)    
Max Wind Speed 21 mph    
Max Gust Speed 26 mph    
Visibility 10 miles    
Events Rain , Thunderstorm    
Averages and records for this station are not official NWS values.
T = Trace of Precipitation, MM = Missing Value Source: NWS Daily Summary

Daily Weather History Graph

Daily Weather History Graph

Search for Another Location

Airport or City:

Trip Planner

Search our weather history database for the weather conditions in past years. The results will help you decide how hot, cold, wet, or windy it might be!

Date:

Astronomy

Aug. 10, 2014 Rise Set
Actual Time 6:20 AM MDT 8:06 PM MDT
Civil Twilight 5:52 AM MDT 8:34 PM MDT
Nautical Twilight 5:18 AM MDT 9:08 PM MDT
Astronomical Twilight 4:41 AM MDT 9:44 PM MDT
Moon 7:57 PM MDT (8/10) 6:15 AM MDT (8/10)
Length of Visible Light 14h 41m
Length of Day
13h 45m
Full, 100% of the Moon is Illuminated
Aug 10
Full
Aug 10
Full
Aug 17
Last Quarter
Aug 25
New
Sep 2
First Quarter

Hourly Weather History & Observations

Time (MDT) Temp. Dew Point Humidity Pressure Visibility Wind Dir Wind Speed Gust Speed Precip Events Conditions
12:15 AM 59.0 °F 34.3 °F 40% 30.36 in 10.0 mi Calm Calm - N/A   Clear
12:35 AM 59.2 °F 32.0 °F 36% 30.36 in 10.0 mi Calm Calm - N/A   Clear
12:55 AM 55.9 °F 35.2 °F 46% 30.36 in 10.0 mi Calm Calm - N/A   Clear
1:15 AM 56.8 °F 34.5 °F 43% 30.36 in 10.0 mi Calm Calm - N/A   Clear
1:35 AM 56.3 °F 35.4 °F 46% 30.36 in 10.0 mi Calm Calm - N/A   Clear
1:55 AM 56.1 °F 36.7 °F 48% 30.36 in 10.0 mi Calm Calm - N/A   Clear
2:15 AM 58.3 °F 35.4 °F 42% 30.36 in 10.0 mi Calm Calm - N/A   Clear
2:35 AM 52.3 °F 37.2 °F 56% 30.37 in 10.0 mi North 3.5 mph - N/A   Clear
3:15 AM 53.8 °F 36.0 °F 51% 30.36 in 10.0 mi NNE 3.5 mph - N/A   Clear
3:35 AM 55.8 °F 35.4 °F 46% 30.36 in 10.0 mi Calm Calm - N/A   Clear
3:55 AM 57.2 °F 35.8 °F 45% 30.37 in 10.0 mi Calm Calm - N/A   Clear
4:15 AM 53.6 °F 37.8 °F 55% 30.38 in 10.0 mi Calm Calm - N/A   Clear
4:35 AM 52.5 °F 37.4 °F 56% 30.37 in 10.0 mi Calm Calm - N/A   Clear
4:55 AM 53.6 °F 38.1 °F 56% 30.38 in 10.0 mi Calm Calm - N/A   Clear
5:15 AM 52.0 °F 36.3 °F 55% 30.38 in 10.0 mi WSW 3.5 mph - N/A   Clear
5:35 AM 53.2 °F 37.0 °F 54% 30.38 in 10.0 mi Calm Calm - N/A   Clear
5:55 AM 50.2 °F 35.4 °F 57% 30.39 in 10.0 mi Calm Calm - N/A   Clear
6:15 AM 51.8 °F 36.5 °F 56% 30.39 in 10.0 mi Calm Calm - N/A   Clear
6:35 AM 50.5 °F 35.6 °F 57% 30.40 in 10.0 mi Calm Calm - N/A   Clear
6:55 AM 48.7 °F 36.9 °F 64% 30.40 in 10.0 mi Calm Calm - N/A   Clear
7:15 AM 54.7 °F 34.9 °F 47% 30.41 in 10.0 mi Calm Calm - N/A   Clear
7:35 AM 55.2 °F 39.6 °F 56% 30.42 in 10.0 mi Calm Calm - N/A   Clear
7:55 AM 59.7 °F 36.7 °F 42% 30.43 in 10.0 mi ENE 3.5 mph - N/A   Clear
8:15 AM 60.4 °F 37.8 °F 43% 30.43 in 10.0 mi Calm Calm - N/A   Clear
8:35 AM 61.9 °F 38.7 °F 42% 30.44 in 10.0 mi NE 4.6 mph - N/A Thunderstorm Clear
8:55 AM 64.0 °F 36.7 °F 36% 30.44 in 10.0 mi NNE 3.5 mph - N/A   Clear
9:15 AM 65.8 °F 36.5 °F 34% 30.44 in 10.0 mi Calm Calm - N/A   Clear
9:35 AM 68.0 °F 35.8 °F 31% 30.44 in 10.0 mi Calm Calm - N/A   Clear
9:55 AM 70.5 °F 36.1 °F 28% 30.44 in 10.0 mi Calm Calm - N/A   Clear
10:15 AM 71.8 °F 35.8 °F 27% 30.44 in 10.0 mi Calm Calm - N/A   Clear
10:35 AM 71.8 °F 35.2 °F 26% 30.44 in 10.0 mi SSW 4.6 mph - N/A   Clear
10:55 AM 72.9 °F 33.4 °F 24% 30.45 in 10.0 mi South 3.5 mph - N/A   Clear
11:15 AM 74.1 °F 32.4 °F 22% 30.45 in 10.0 mi South 8.1 mph - N/A   Clear
11:35 AM 74.5 °F 32.4 °F 21% 30.44 in 10.0 mi West 3.5 mph - N/A   Clear
11:55 AM 75.9 °F 33.1 °F 21% 30.44 in 10.0 mi SW 6.9 mph - N/A   Clear
12:15 PM 76.8 °F 33.3 °F 20% 30.43 in 10.0 mi SSW 10.4 mph - N/A   Clear
12:35 PM 76.8 °F 30.4 °F 18% 30.43 in 10.0 mi South 3.5 mph - N/A Thunderstorm Clear
12:55 PM 77.9 °F 28.9 °F 17% 30.41 in 10.0 mi WNW 5.8 mph - N/A   Clear
1:15 PM 78.6 °F 30.9 °F 18% 30.41 in 10.0 mi WSW 5.8 mph - N/A   Clear
1:35 PM 79.9 °F 27.5 °F 15% 30.40 in 10.0 mi SSW 10.4 mph - N/A   Scattered Clouds
1:55 PM 80.1 °F 26.4 °F 14% 30.40 in 10.0 mi WSW 10.4 mph 17.3 mph N/A Thunderstorm Scattered Clouds
2:15 PM 80.6 °F 31.8 °F 17% 30.39 in 10.0 mi NNW 10.4 mph 18.4 mph N/A   Scattered Clouds
2:35 PM 80.6 °F 27.5 °F 14% 30.38 in 10.0 mi NW 8.1 mph - N/A   Clear
2:55 PM 77.7 °F 30.4 °F 18% 30.39 in 10.0 mi NW 20.7 mph 26.5 mph N/A   Scattered Clouds
3:15 PM 73.6 °F 34.0 °F 23% 30.40 in 10.0 mi West 15.0 mph 18.4 mph N/A   Mostly Cloudy
3:35 PM 73.0 °F 33.4 °F 23% 30.41 in 10.0 mi WNW 8.1 mph 13.8 mph N/A Rain Rain
3:55 PM 72.5 °F 30.7 °F 21% 30.41 in 10.0 mi NNW 11.5 mph 18.4 mph N/A   Light Drizzle
4:35 PM 73.8 °F 36.0 °F 25% 30.40 in 10.0 mi NNW 5.8 mph - N/A   Mostly Cloudy
4:55 PM 73.2 °F 32.4 °F 22% 30.39 in 10.0 mi North 3.5 mph - N/A   Scattered Clouds
5:15 PM 75.4 °F 33.3 °F 21% 30.38 in 10.0 mi Calm Calm - N/A   Scattered Clouds
5:35 PM 75.2 °F 31.8 °F 20% 30.37 in 10.0 mi North 4.6 mph - N/A   Scattered Clouds
5:55 PM 76.1 °F 32.5 °F 20% 30.38 in 10.0 mi East 3.5 mph - N/A   Scattered Clouds
6:15 PM 76.3 °F 30.6 °F 19% 30.38 in 10.0 mi ESE 4.6 mph - N/A   Scattered Clouds
6:35 PM 76.6 °F 27.3 °F 16% 30.37 in 10.0 mi SE 3.5 mph - N/A   Clear
6:55 PM 76.3 °F 31.5 °F 19% 30.37 in 10.0 mi SE 3.5 mph - N/A   Clear
7:15 PM 74.8 °F 32.9 °F 22% 30.38 in 10.0 mi SSE 9.2 mph - N/A   Clear
7:35 PM 72.9 °F 36.5 °F 27% 30.38 in 10.0 mi SSE 8.1 mph - N/A   Clear
7:55 PM 70.9 °F 35.8 °F 28% 30.38 in 10.0 mi SSE 6.9 mph - N/A   Clear
8:15 PM 70.2 °F 35.2 °F 28% 30.39 in 10.0 mi Calm Calm - N/A   Clear
8:35 PM 63.9 °F 39.4 °F 41% 30.39 in 10.0 mi Calm Calm - N/A   Clear
8:55 PM 59.9 °F 40.8 °F 49% 30.40 in 10.0 mi NNE 3.5 mph - N/A   Clear
9:15 PM 61.0 °F 39.6 °F 45% 30.41 in 10.0 mi Calm Calm - N/A   Clear
9:35 PM 62.4 °F 41.4 °F 46% 30.43 in 10.0 mi Calm Calm - N/A   Mostly Cloudy
9:55 PM 63.5 °F 38.7 °F 40% 30.45 in 10.0 mi ENE 3.5 mph - N/A   Overcast
10:15 PM 63.3 °F 39.9 °F 42% 30.46 in 10.0 mi Calm Calm - N/A   Mostly Cloudy
10:35 PM 64.8 °F 39.6 °F 40% 30.46 in 10.0 mi ENE 4.6 mph - N/A   Scattered Clouds
10:55 PM 64.6 °F 41.0 °F 42% 30.46 in 10.0 mi NE 5.8 mph - N/A   Clear
11:15 PM 64.6 °F 41.0 °F 42% 30.48 in 10.0 mi NNE 5.8 mph - N/A   Mostly Cloudy
11:35 PM 63.3 °F 41.5 °F 45% 30.48 in 10.0 mi Calm Calm - N/A   Scattered Clouds
11:55 PM 63.9 °F 41.2 °F 43% 30.49 in 10.0 mi North 3.5 mph - N/A   Mostly Cloudy